Powrót do katalogu

COSMOS 1975

AktywnyMilitariaPO
NORAD 19573·PAYLOAD·🇷🇺 Russia

Wystrzelony Oct 11, 1988 z Plesetsk Cosmodrome

Loading…

Następne Przeloty (najbliższe 24 godziny)

TLE

ŚwieżeSource: Space-Track

Epoka: Sep 14, 2026, 08:54 UTC

1 19573U 88093A   26257.37116803  .00005182  00000-0  17543-3 0  9993
2 19573  82.5161 287.9313 0010025 215.1909 144.8670 15.30310105 48245

Śledź COSMOS 1975 w czasie rzeczywistym z AllMySat

Download on the App Store